[[{"header":{"parameterUnit":"m.s-1","parameterCategory":1,"la1":30.2991,"la2":30.254,"lo1":-89.0895,"lo2":-89.0444,"dy":0.0017,"dx":0.0017,"nx":28,"ny":28,"refTime":"2024-04-13T09:00:00:Z","depth":0,"parameterNumber":2,"parameterNumberName":"U-component_of_WINDS"},"data":[0,0,0,0,0,0,0,0,0,0,0,0,0,0,0,0,0,0,0,0,0,0,0,0,0,0,0,0,0,0,0,0,0,0,0,0,0,0,0,0,0,0,0,0,0,0,0,0,0,0,0,0,0,0,0,0,0,0,1.4123,1.4123,0,1.4158,1.4158,1.4159,1.4152,1.4151,1.4151,1.415,1.4184,1.4185,1.4186,0,0,0,0,0,0,0,0,0,0,0,0,0,1.4047,1.4049,1.4123,1.4123,1.4124,1.4158,1.4158,1.4159,1.4152,1.4151,1.4151,1.415,1.4183,1.4185,1.4187,0,0,0,0,0,0,0,0,0,0,0,0,0,1.4081,1.4049,1.4123,1.4125,1.4125,1.4158,1.4158,1.4159,1.4152,1.4151,1.415,1.4149,1.4182,1.4185,1.4187,1.4219,0,0,1.4193,1.4194,0,0,0,0,0,0,0,0,1.4079,1.4084,1.4124,1.4125,1.4125,1.415,1.4144,1.4179,1.4152,1.4142,1.415,1.4149,1.4173,1.4176,1.4184,1.4221,1.4222,1.4194,1.4195,1.4196,1.4197,0,0,0,0,0,0,0,1.4077,1.4082,1.4137,1.4125,1.4125,1.4122,1.4126,1.415,1.4162,1.4143,1.4142,1.4147,1.4173,1.4182,1.4185,1.4222,1.4194,1.4196,1.4197,1.4198,1.4284,1.4285,0,0,0,0,0,0,1.4074,1.408,1.4136,1.4138,1.4099,1.4125,1.4129,1.4143,1.4162,1.4164,1.4147,1.4146,1.4179,1.4182,1.4186,1.4223,1.4196,1.4198,1.4199,1.4283,1.4284,1.4285,0,0,0,0,0,0,1.4072,1.4079,1.4134,1.4109,1.4116,1.4127,1.4143,1.4144,1.4153,1.4165,1.4167,1.4155,1.4178,1.4183,1.421,1.4224,1.4199,1.4201,1.4282,1.4283,1.4285,1.4298,0,0,0,0,0,0,1.407,1.4079,1.4092,1.4109,1.4117,1.4159,1.4144,1.4145,1.4157,1.4156,1.4173,1.4175,1.4178,1.4207,1.4213,1.4227,1.4203,1.4281,1.4282,1.4284,1.4297,1.43,1.4303,0,0,0,0,0,1.4068,1.4095,1.4093,1.4099,1.4134,1.416,1.4164,1.4168,1.4158,1.4171,1.4178,1.4174,1.4222,1.421,1.4216,1.4231,1.428,1.4282,1.4284,1.4295,1.43,1.4303,0,0,0,0,0,0,1.4078,1.4097,1.4095,1.4129,1.4143,1.4159,1.4175,1.4173,1.4189,1.4187,1.4191,1.4194,1.4222,1.4229,1.4216,1.4262,1.4249,1.4253,1.4256,1.426,1.4263,1.426,1.4205,0,0,0,0,0,1.4085,1.4105,1.412,1.4148,1.4155,1.4164,1.4175,1.4177,1.4191,1.4197,1.4207,1.422,1.4238,1.4249,1.4267,1.4298,1.43,1.4311,1.4314,1.4317,1.4319,1.4334,1.4338,1.4292,1.4292,1.4292,0,0,1.4098,1.4111,1.4123,1.415,1.4162,1.4181,1.4169,1.4191,1.4204,1.42,1.4226,1.4233,1.4248,1.4277,1.429,1.4284,1.4333,1.432,1.4322,1.4323,1.4337,1.4341,1.4345,1.4294,1.4293,1.4293,0,0,1.4132,1.4144,1.4168,1.4179,1.4196,1.4201,1.4207,1.4223,1.4227,1.4254,1.425,1.4266,1.4298,1.4308,1.4317,1.4352,1.4348,1.4358,1.4374,1.4388,1.4392,1.4395,1.4405,1.4409,1.436,1.436,1.436,0,1.4146,1.4176,1.418,1.4201,1.4212,1.4209,1.4232,1.4243,1.4264,1.4271,1.4264,1.4302,1.4312,1.4342,1.435,1.4359,1.4364,1.4355,1.4391,1.4394,1.4397,1.4407,1.4411,1.4361,1.4361,1.4361,1.4361,0,1.4191,1.4212,1.4228,1.4249,1.4262,1.4284,1.429,1.4303,1.4303,1.4308,1.4333,1.4345,1.4364,1.4371,1.4372,1.4401,1.4396,1.439,1.4377,1.4402,1.4412,1.4416,1.4363,1.4362,1.4362,1.4362,0,0,1.4233,1.4254,1.426,1.4268,1.4286,1.4301,1.4322,1.4341,1.435,1.4365,1.4381,1.4407,1.4401,1.4411,1.4413,1.4425,1.445,1.4417,1.4418,1.4421,1.448,1.4483,1.4487,1.4447,1.4448,1.4449,1.4478,0,1.4266,1.4304,1.4307,1.434,1.4358,1.4355,1.4373,1.4384,1.439,1.4405,1.441,1.4428,1.442,1.4425,1.4438,1.4444,1.4461,1.4442,1.4461,1.4461,1.4456,1.4493,1.4497,1.4523,1.4482,1.4482,1.4483,0,1.4311,1.4326,1.4361,1.4374,1.4381,1.4397,1.4413,1.4428,1.4441,1.4444,1.4455,1.4454,1.4473,1.4461,1.4487,1.4474,1.4481,1.4485,1.4486,1.4487,1.4473,1.4492,1.4532,1.4535,1.4489,1.4488,1.4488,0,1.4335,1.4364,1.4388,1.4396,1.4412,1.4423,1.443,1.4442,1.4452,1.4466,1.4472,1.4488,1.4496,1.4507,1.451,1.4501,1.4535,1.4524,1.4537,1.4537,1.4543,1.4543,1.4583,1.4551,1.4551,1.4551,1.4551,0,1.4371,1.4392,1.4399,1.4413,1.4436,1.4439,1.4461,1.4468,1.4478,1.4492,1.4491,1.4504,1.4508,1.4522,1.4524,1.4544,1.4548,1.455,1.455,1.4549,1.4548,1.4553,1.4551,1.4552,1.4552,1.4551,1.4551,0,1.4401,1.4407,1.4433,1.4446,1.4449,1.4465,1.4476,1.4489,1.4494,1.4512,1.4517,1.4524,1.454,1.4544,1.4563,1.4564,1.4587,1.4587,1.4583,1.4583,1.4595,1.4593,1.4638,1.4644,1.461,1.461,1.461,0,1.4423,1.4439,1.4453,1.4463,1.4471,1.4487,1.4497,1.45,1.451,1.4525,1.4536,1.4552,1.4564,1.459,1.4596,1.461,1.4608,1.4623,1.461,1.4608,1.4606,1.4605,1.4605,1.4625,1.4625,1.4626,1.4626,0,1.4461,1.4462,1.4477,1.4493,1.4505,1.4517,1.4528,1.4536,1.4541,1.4552,1.4569,1.4578,1.4597,1.4612,1.4626,1.4632,1.4629,1.463,1.4634,1.4632,1.4629,1.4629,1.4588,1.4629,1.4629,1.4628,1.4628,1.4628,1.4486,1.4499,1.4511,1.4527,1.4536,1.4546,1.4559,1.4565,1.4578,1.4594,1.4595,1.4612,1.4623,1.4641,1.4648,1.466,1.4656,1.4661,1.4662,1.4663,1.4663,1.4628,1.4663,1.4663,1.4663,1.4663,1.4663,0,1.4522,1.4529,1.4544,1.456,1.4572,1.4568,1.4581,1.459,1.4606,1.4616,1.4628,1.4646,1.466,1.4667,1.468,1.4689,1.4688,1.4692,1.4691,1.4692,1.4668,1.4663,1.4693,1.4693,1.4693,1.4693,1.4693,1.4693,1.4542,1.4563,1.4566,1.459,1.4597,1.4614,1.4621,1.463,1.4638,1.4658,1.4669,1.4674,1.4682,1.4696,1.4708,1.471,1.4714,1.4719,1.472,1.4697,1.4694,1.4691,1.4686,1.472,1.472,1.4742,1.4743,1.4743]},{"header":{"parameterUnit":"m.s-1","parameterCategory":1,"la1":30.2991,"la2":30.254,"lo1":-89.0895,"lo2":-89.0444,"dy":0.0017,"dx":0.0017,"nx":28,"ny":28,"refTime":"2024-04-13T09:00:00:Z","depth":0,"parameterNumber":3,"parameterNumberName":"V-component_of_WINDS"},"data":[0,0,0,0,0,0,0,0,0,0,0,0,0,0,0,0,0,0,0,0,0,0,0,0,0,0,0,0,0,0,0,0,0,0,0,0,0,0,0,0,0,0,0,0,0,0,0,0,0,0,0,0,0,0,0,0,0,0,2.5663,2.5663,0,2.5698,2.5698,2.5699,2.566,2.5659,2.5657,2.5656,2.569,2.5692,2.5695,0,0,0,0,0,0,0,0,0,0,0,0,0,2.5559,2.5561,2.5663,2.5663,2.5664,2.5698,2.5698,2.5699,2.566,2.5658,2.5657,2.5655,2.5689,2.5692,2.5695,0,0,0,0,0,0,0,0,0,0,0,0,0,2.56,2.5561,2.5663,2.5648,2.5648,2.5698,2.5698,2.5699,2.5661,2.5658,2.5656,2.5654,2.5689,2.5692,2.5695,2.5761,0,0,2.5706,2.5707,0,0,0,0,0,0,0,0,2.5598,2.5604,2.565,2.565,2.5649,2.5672,2.5674,2.572,2.5661,2.5656,2.5656,2.5653,2.5686,2.5689,2.5701,2.5762,2.5764,2.5706,2.5708,2.571,2.5711,0,0,0,0,0,0,0,2.5595,2.5602,2.5676,2.5651,2.565,2.5639,2.5643,2.5683,2.5683,2.5656,2.5653,2.5658,2.5685,2.5698,2.5701,2.5764,2.5706,2.5709,2.5711,2.5712,2.5878,2.588,0,0,0,0,0,0,2.5594,2.56,2.5675,2.5678,2.5617,2.5643,2.5647,2.5667,2.5682,2.5682,2.566,2.5656,2.5693,2.5697,2.5702,2.5778,2.571,2.5713,2.5715,2.5875,2.5878,2.5881,0,0,0,0,0,0,2.5592,2.5601,2.5674,2.5638,2.5646,2.5647,2.567,2.5669,2.5681,2.5685,2.5685,2.5673,2.5691,2.5698,2.5746,2.5779,2.5714,2.5717,2.5873,2.5876,2.588,2.5931,0,0,0,0,0,0,2.5589,2.56,2.5626,2.5639,2.5649,2.5718,2.5672,2.5671,2.5687,2.5683,2.5697,2.5697,2.569,2.5741,2.5749,2.5782,2.572,2.587,2.5874,2.5878,2.5926,2.5935,2.5943,0,0,0,0,0,2.5585,2.564,2.5628,2.5637,2.5681,2.572,2.5725,2.5716,2.569,2.5715,2.5717,2.5697,2.5774,2.5746,2.5755,2.579,2.5868,2.5873,2.5878,2.5922,2.5934,2.5943,0,0,0,0,0,0,2.5631,2.5641,2.5628,2.5688,2.5704,2.5713,2.5745,2.5729,2.5752,2.5747,2.5734,2.5737,2.5788,2.5794,2.5763,2.5852,2.5816,2.5824,2.5847,2.5858,2.5866,2.5863,2.5723,0,0,0,0,0,2.5648,2.568,2.5687,2.5739,2.5747,2.5745,2.5762,2.5753,2.5768,2.5774,2.578,2.5795,2.5822,2.584,2.5866,2.5927,2.5928,2.5955,2.5963,2.5971,2.5977,2.6007,2.6018,2.5898,2.5898,2.5898,0,0,2.5684,2.5693,2.5714,2.5748,2.5759,2.5791,2.5751,2.5787,2.5809,2.578,2.5825,2.583,2.5845,2.5899,2.5924,2.5906,2.601,2.5977,2.5983,2.5985,2.6013,2.6025,2.6035,2.5902,2.5901,2.59,0,0,2.5764,2.5776,2.5819,2.583,2.5847,2.5845,2.5855,2.5867,2.5869,2.5914,2.5892,2.5918,2.5966,2.5978,2.599,2.6072,2.6053,2.6081,2.6126,2.6156,2.6165,2.6173,2.6201,2.6211,2.6087,2.6087,2.6087,0,2.5806,2.5854,2.5843,2.588,2.5895,2.5869,2.5912,2.5923,2.5947,2.5958,2.5937,2.5995,2.6004,2.6059,2.6079,2.609,2.61,2.6079,2.6165,2.6173,2.618,2.6206,2.6217,2.609,2.609,2.6089,2.6089,0,2.5904,2.5937,2.597,2.5993,2.6012,2.6052,2.6045,2.6065,2.6054,2.6054,2.6099,2.6109,2.6134,2.6147,2.6137,2.62,2.6188,2.6167,2.613,2.6195,2.6219,2.6229,2.6095,2.6093,2.6093,2.6092,0,0,2.6015,2.6031,2.6043,2.6052,2.6067,2.6092,2.613,2.6155,2.6171,2.6188,2.6218,2.6258,2.6237,2.6251,2.6242,2.6268,2.633,2.6243,2.6243,2.6257,2.6398,2.6413,2.6425,2.6318,2.632,2.6321,2.6396,0,2.6095,2.616,2.6151,2.6213,2.6242,2.6217,2.6249,2.6261,2.6261,2.6285,2.6285,2.6313,2.6284,2.6292,2.6317,2.6317,2.6358,2.6312,2.6344,2.6346,2.634,2.6438,2.6455,2.6525,2.6405,2.6407,2.6408,0,2.6197,2.6217,2.6282,2.629,2.6302,2.6332,2.6352,2.6376,2.6388,2.6386,2.6401,2.6386,2.6422,2.6385,2.6433,2.6402,2.6415,2.6417,2.6419,2.6421,2.638,2.6441,2.6547,2.6557,2.6423,2.6422,2.6421,0,2.6269,2.6312,2.6356,2.6365,2.6377,2.6397,2.6403,2.6413,2.6428,2.6446,2.6455,2.6477,2.6489,2.6506,2.6497,2.6472,2.6546,2.651,2.6544,2.6544,2.6561,2.6559,2.6669,2.6571,2.6571,2.6571,2.657,0,2.6359,2.6399,2.6388,2.6416,2.6459,2.6447,2.649,2.6493,2.6502,2.6528,2.6507,2.6532,2.652,2.6543,2.6536,2.6576,2.6582,2.658,2.6578,2.6581,2.6581,2.6589,2.6583,2.6573,2.6573,2.6572,2.6572,0,2.6447,2.6442,2.6488,2.6494,2.6496,2.6528,2.6533,2.6558,2.6555,2.6588,2.6595,2.6591,2.6618,2.6611,2.664,2.6635,2.6684,2.6676,2.668,2.6678,2.6712,2.6708,2.6829,2.6843,2.6738,2.6739,2.6739,0,2.6504,2.6534,2.6543,2.6559,2.6566,2.6592,2.6606,2.6595,2.6611,2.6626,2.6648,2.6672,2.6691,2.6733,2.6733,2.6754,2.6745,2.6786,2.6749,2.675,2.6744,2.6742,2.6744,2.6793,2.6795,2.6796,2.6796,0,2.6605,2.66,2.6622,2.6642,2.666,2.6676,2.6689,2.6703,2.6692,2.6711,2.6737,2.6752,2.678,2.6804,2.6823,2.6827,2.681,2.6808,2.6817,2.6821,2.6821,2.6819,2.6699,2.6805,2.6805,2.6804,2.6803,2.6803,2.6678,2.6702,2.6712,2.6736,2.6745,2.6758,2.678,2.678,2.6802,2.6824,2.6815,2.6845,2.6854,2.6878,2.6885,2.6907,2.6891,2.6905,2.6908,2.6911,2.6914,2.6818,2.6911,2.691,2.691,2.691,2.691,0,2.6776,2.678,2.6803,2.6822,2.684,2.6822,2.6835,2.6852,2.6878,2.6888,2.6907,2.6936,2.6958,2.6959,2.6979,2.6996,2.6989,2.7002,2.7,2.7001,2.6928,2.6918,2.7008,2.7008,2.7008,2.7008,2.7008,2.7008,2.6829,2.6869,2.6865,2.6908,2.6912,2.6941,2.695,2.6961,2.6968,2.7001,2.702,2.702,2.7025,2.7046,2.7065,2.7064,2.7072,2.7088,2.7085,2.7016,2.7006,2.6997,2.6987,2.709,2.7091,2.7155,2.7156,2.7156]}]]